リニア彗星

C/2011 J3 ( LINEAR )

English version
Home page
Updated on September 3, 2011

---------------------------------------------------------------------

・ プロフィール

発見日 2011年5月14日
発見光度 19.7等
発見者 Lincoln Laboratory Near-Earth Asteroid Research project

・ 写真集

・ 軌道要素

Epoch 2011 Feb. 8.0 TT = JDT 2455600.5
T 2011 Jan. 24.39375 TT                                 MPC
q   1.4510289            (2000.0)            P               Q
n   0.01135624     Peri.   27.84838     +0.89420603     -0.29904456
a  19.6025691      Node    21.51229     -0.03801357     -0.79217745
e   0.9259776      Incl.  114.71204     +0.44603873     +0.53200304
P  86.8
From 81 observations 2011 May 14-July 19, mean residual 0".6.

・ 星図

・ 光度変化

        m1 = 13.0 + 5 logΔ + 10.0 log r

---------------------------------------------------------------------

軌道要素はM.P.E.C. 2011-O57に掲載されたものです。
星図はステラナビゲータ Ver.8 (アストロアーツ) で作成したものです。
光度グラフはComet for Windowsで作成したものです。

---------------------------------------------------------------------

Copyright(C) Seiichi Yoshida (comet@aerith.net). All rights reserved.